TKJ6YT LTFJ-LTCV

Flight info

Callsign TKJ6YT
Flight time N/A
Altitude 27000
Route VICEN T57 VEVUD/N0435F350 UT341 BAG UL614 MARTI UW76 ERMOD UT243 GEM UT32 MOVUL
Aircraft B738/M-SDE2E3FGHIRWXY/LB1

Departure

Time 2026-05-01 08:40
Airport Istanbul Sabiha Gökçen International Airport (LTFJ)

Arrival

Time N/A
Airport Şırnak Şerafettin Elçi Airport (LTCV)
Time Latitude Longitude Altitude Speed Heading
2026-05-01 08:29 40.89303 29.31314 305 ft 0 kts 244°
2026-05-01 08:34 40.89304 29.31318 305 ft 2 kts 244°
2026-05-01 08:34 40.89311 29.31336 305 ft 2 kts 244°
2026-05-01 08:34 40.89317 29.31353 305 ft 2 kts 244°
2026-05-01 08:34 40.89324 29.31371 308 ft 2 kts 244°
2026-05-01 08:35 40.89330 29.31389 305 ft 2 kts 243°
2026-05-01 08:35 40.89339 29.31404 305 ft 2 kts 223°
2026-05-01 08:35 40.89350 29.31417 305 ft 2 kts 196°
2026-05-01 08:35 40.89365 29.31419 306 ft 2 kts 163°
2026-05-01 08:36 40.89368 29.31418 305 ft 0 kts 155°
2026-05-01 08:36 40.89332 29.31441 304 ft 12 kts 153°
2026-05-01 08:36 40.89235 29.31440 306 ft 17 kts 204°
2026-05-01 08:37 40.89138 29.31422 305 ft 12 kts 205°
2026-05-01 08:37 40.89088 29.31328 305 ft 14 kts 243°
2026-05-01 08:37 40.89044 29.31207 304 ft 17 kts 245°
2026-05-01 08:37 40.88988 29.31051 299 ft 21 kts 244°
2026-05-01 08:38 40.88916 29.30857 292 ft 26 kts 244°
2026-05-01 08:38 40.88848 29.30672 285 ft 21 kts 244°
2026-05-01 08:38 40.88779 29.30482 280 ft 25 kts 244°
2026-05-01 08:38 40.88706 29.30288 280 ft 21 kts 243°
2026-05-01 08:39 40.88615 29.30197 278 ft 17 kts 159°
2026-05-01 08:39 40.88515 29.30274 281 ft 17 kts 117°
2026-05-01 08:39 40.88565 29.30473 280 ft 51 kts 64°
2026-05-01 08:39 40.88837 29.31212 299 ft 127 kts 64°
2026-05-01 08:40 40.89825 29.34018 1335 ft 191 kts 60°
2026-05-01 08:40 40.90249 29.35698 2102 ft 204 kts 86°
2026-05-01 08:40 40.89741 29.37558 2508 ft 230 kts 121°
2026-05-01 08:41 40.89042 29.39486 2948 ft 239 kts 91°
2026-05-01 08:41 40.89132 29.41693 3697 ft 243 kts 85°
2026-05-01 08:41 40.89101 29.43939 4580 ft 248 kts 97°
2026-05-01 08:41 40.88332 29.46005 5330 ft 263 kts 133°
2026-05-01 08:42 40.86769 29.47259 6063 ft 272 kts 154°
2026-05-01 08:42 40.85031 29.48297 6669 ft 274 kts 154°
2026-05-01 08:42 40.83296 29.49346 7032 ft 277 kts 154°
2026-05-01 08:42 40.81527 29.50432 7775 ft 282 kts 154°
2026-05-01 08:43 40.79752 29.51543 8657 ft 283 kts 154°
2026-05-01 08:43 40.77990 29.52734 9460 ft 287 kts 144°
2026-05-01 08:43 40.76676 29.54716 10149 ft 293 kts 116°
2026-05-01 08:43 40.75969 29.57314 10472 ft 314 kts 104°
2026-05-01 08:44 40.75428 29.60178 10659 ft 338 kts 104°
2026-05-01 08:44 40.74862 29.63255 11174 ft 350 kts 105°
2026-05-01 08:44 40.74257 29.66386 11905 ft 354 kts 106°
2026-05-01 08:44 40.73627 29.69552 12578 ft 360 kts 107°
2026-05-01 08:45 40.73241 29.72849 13245 ft 368 kts 95°
2026-05-01 08:45 40.73190 29.76248 13837 ft 374 kts 92°
2026-05-01 08:45 40.73184 29.79695 13973 ft 377 kts 92°
2026-05-01 08:45 40.73171 29.83154 13984 ft 377 kts 92°
2026-05-01 08:46 40.73139 29.86611 13989 ft 376 kts 93°
2026-05-01 08:46 40.73090 29.90009 14005 ft 376 kts 93°
2026-05-01 08:46 40.73030 29.93450 14004 ft 376 kts 94°
2026-05-01 08:46 40.72965 29.96894 13998 ft 376 kts 94°
2026-05-01 08:47 40.72898 30.00338 14000 ft 376 kts 94°
2026-05-01 08:47 40.72829 30.03783 14000 ft 376 kts 94°
2026-05-01 08:47 40.72660 30.07222 13977 ft 375 kts 104°
2026-05-01 08:47 40.71879 30.10500 14324 ft 378 kts 114°
2026-05-01 08:48 40.70964 30.13755 15072 ft 379 kts 114°
2026-05-01 08:48 40.70061 30.17029 15803 ft 381 kts 114°
2026-05-01 08:48 40.69171 30.20337 16446 ft 386 kts 114°
2026-05-01 08:48 40.68281 30.23697 17017 ft 391 kts 113°
2026-05-01 08:49 40.67397 30.27057 17591 ft 395 kts 114°
2026-05-01 08:49 40.66406 30.30440 18136 ft 396 kts 123°
2026-05-01 08:49 40.64838 30.33373 18728 ft 391 kts 134°
2026-05-01 08:49 40.63127 30.36172 19319 ft 394 kts 134°
2026-05-01 08:50 40.61404 30.38995 19927 ft 397 kts 134°
2026-05-01 08:50 40.59684 30.41856 20568 ft 400 kts 134°
2026-05-01 08:50 40.57968 30.44751 21127 ft 403 kts 133°
2026-05-01 08:50 40.56242 30.47676 21632 ft 407 kts 133°
2026-05-01 08:51 40.54573 30.50650 22139 ft 414 kts 127°
2026-05-01 08:51 40.53228 30.54044 22647 ft 424 kts 117°
2026-05-01 08:51 40.52324 30.57768 23146 ft 432 kts 108°
2026-05-01 08:51 40.51670 30.61636 23628 ft 435 kts 107°
2026-05-01 08:52 40.51037 30.65536 24062 ft 438 kts 107°
2026-05-01 08:52 40.50365 30.69460 24485 ft 442 kts 107°
2026-05-01 08:52 40.49661 30.73398 24924 ft 444 kts 109°
2026-05-01 08:52 40.48837 30.77305 25336 ft 444 kts 111°
2026-05-01 08:53 40.47923 30.81191 25770 ft 446 kts 112°
2026-05-01 08:53 40.46990 30.85027 26168 ft 448 kts 112°
2026-05-01 08:53 40.46035 30.88942 26525 ft 451 kts 112°
2026-05-01 08:53 40.45085 30.92876 26906 ft 453 kts 112°
2026-05-01 08:54 40.44139 30.96833 27252 ft 456 kts 112°
2026-05-01 08:54 40.43191 31.00818 27578 ft 459 kts 112°
2026-05-01 08:54 40.42238 31.04829 27914 ft 461 kts 112°
2026-05-01 08:54 40.41283 31.08857 28253 ft 463 kts 112°
2026-05-01 08:55 40.40323 31.12892 28588 ft 465 kts 112°
2026-05-01 08:55 40.39367 31.16901 28885 ft 468 kts 112°
2026-05-01 08:55 40.38392 31.20978 29201 ft 469 kts 111°
2026-05-01 08:55 40.37510 31.25116 29502 ft 473 kts 108°
2026-05-01 08:56 40.36790 31.29338 29801 ft 476 kts 105°
2026-05-01 08:56 40.36136 31.33591 30212 ft 475 kts 105°
2026-05-01 08:56 40.35500 31.37822 30721 ft 471 kts 105°
2026-05-01 08:56 40.34856 31.42032 31085 ft 471 kts 105°
2026-05-01 08:57 40.34193 31.46244 31335 ft 473 kts 105°
2026-05-01 08:57 40.33513 31.50466 31659 ft 473 kts 105°
2026-05-01 08:57 40.32835 31.54612 32057 ft 471 kts 106°
2026-05-01 08:57 40.32146 31.58801 32459 ft 469 kts 106°
2026-05-01 08:58 40.31457 31.62977 32750 ft 470 kts 106°
2026-05-01 08:58 40.30764 31.67164 33002 ft 471 kts 105°
2026-05-01 08:58 40.30071 31.71348 33337 ft 469 kts 106°
2026-05-01 08:58 40.29381 31.75513 33703 ft 467 kts 105°
2026-05-01 08:59 40.28690 31.79675 33981 ft 468 kts 106°
2026-05-01 08:59 40.27998 31.83833 34269 ft 467 kts 105°
2026-05-01 08:59 40.27307 31.87976 34633 ft 465 kts 106°
2026-05-01 08:59 40.26617 31.92049 34881 ft 464 kts 107°
2026-05-01 09:00 40.25813 31.96148 35023 ft 466 kts 109°
2026-05-01 09:00 40.24926 32.00247 35007 ft 469 kts 110°
2026-05-01 09:00 40.23085 32.08444 35003 ft 468 kts 110°
2026-05-01 09:01 40.21283 32.16554 35004 ft 461 kts 109°
2026-05-01 09:01 40.19510 32.24626 35011 ft 462 kts 110°
2026-05-01 09:02 40.17747 32.32648 35000 ft 463 kts 110°
2026-05-01 09:02 40.15967 32.40735 34994 ft 463 kts 110°
2026-05-01 09:03 40.14180 32.48825 34996 ft 464 kts 110°
2026-05-01 09:03 40.12382 32.56919 34975 ft 464 kts 111°
2026-05-01 09:04 40.10593 32.64951 34974 ft 464 kts 111°
2026-05-01 09:04 40.08785 32.73038 34971 ft 464 kts 111°
2026-05-01 09:05 40.06966 32.81111 34978 ft 462 kts 112°
2026-05-01 09:05 40.04777 32.88960 34975 ft 459 kts 116°
2026-05-01 09:06 40.02433 32.96703 34968 ft 459 kts 116°
2026-05-01 09:06 40.00125 33.04387 34954 ft 458 kts 116°
2026-05-01 09:07 39.97830 33.12118 34963 ft 457 kts 115°
2026-05-01 09:07 39.95540 33.19845 34964 ft 457 kts 115°
2026-05-01 09:08 39.93248 33.27560 34961 ft 456 kts 115°
2026-05-01 09:08 39.90968 33.35207 34961 ft 456 kts 115°
2026-05-01 09:09 39.88671 33.42891 34967 ft 455 kts 115°
2026-05-01 09:09 39.86370 33.50562 34963 ft 455 kts 115°
2026-05-01 09:10 39.84060 33.58245 34960 ft 456 kts 116°
2026-05-01 09:10 39.82061 33.66036 34966 ft 460 kts 108°
2026-05-01 09:11 39.80519 33.74118 34966 ft 461 kts 108°
2026-05-01 09:11 39.78934 33.82189 34968 ft 460 kts 109°
2026-05-01 09:12 39.77247 33.90214 34956 ft 459 kts 112°
2026-05-01 09:12 39.75100 33.97939 34967 ft 457 kts 115°
2026-05-01 09:13 39.72830 34.05640 34959 ft 456 kts 115°
2026-05-01 09:13 39.70597 34.13362 34962 ft 457 kts 115°
2026-05-01 09:14 39.68392 34.21088 34964 ft 456 kts 114°
2026-05-01 09:14 39.66184 34.28814 34964 ft 456 kts 114°
2026-05-01 09:15 39.63986 34.36477 34953 ft 457 kts 115°
2026-05-01 09:15 39.61765 34.44196 34955 ft 457 kts 115°
2026-05-01 09:16 39.59545 34.51910 34953 ft 457 kts 114°
2026-05-01 09:17 39.56208 34.63487 34964 ft 457 kts 115°
2026-05-01 09:17 39.52875 34.74991 34970 ft 456 kts 115°
2026-05-01 09:18 39.49519 34.86523 34959 ft 456 kts 115°
2026-05-01 09:19 39.46158 34.98028 34961 ft 455 kts 115°
2026-05-01 09:20 39.42809 35.09442 34958 ft 454 kts 115°
2026-05-01 09:20 39.40057 35.16653 34961 ft 440 kts 136°
2026-05-01 09:21 39.35272 35.21166 34968 ft 421 kts 162°
2026-05-01 09:21 39.27159 35.25369 34964 ft 422 kts 160°
2026-05-01 09:22 39.22802 35.30544 34966 ft 444 kts 123°
2026-05-01 09:22 39.21203 35.38304 34988 ft 456 kts 100°
2026-05-01 09:23 39.20226 35.50562 34960 ft 460 kts 99°
2026-05-01 09:24 39.19155 35.62817 34960 ft 462 kts 100°
2026-05-01 09:25 39.17626 35.79289 34965 ft 463 kts 100°
2026-05-01 09:26 39.16472 35.91597 34972 ft 463 kts 100°
2026-05-01 09:26 39.15082 36.03870 34966 ft 458 kts 110°
2026-05-01 09:27 39.11540 36.15161 34975 ft 452 kts 117°
2026-05-01 09:28 39.09091 36.22536 34980 ft 451 kts 117°
2026-05-01 09:28 39.06664 36.29964 34982 ft 450 kts 117°
2026-05-01 09:29 39.03052 36.41085 34981 ft 449 kts 117°
2026-05-01 09:30 38.99456 36.52129 34984 ft 448 kts 117°
2026-05-01 09:30 38.95828 36.63216 34978 ft 449 kts 117°
2026-05-01 09:31 38.93399 36.70612 34974 ft 450 kts 117°
2026-05-01 09:32 38.89761 36.81664 34976 ft 450 kts 117°
2026-05-01 09:32 38.86090 36.92765 34983 ft 451 kts 117°
2026-05-01 09:33 38.83635 37.00169 34993 ft 451 kts 117°
2026-05-01 09:34 38.79939 37.11284 34982 ft 452 kts 117°
2026-05-01 09:34 38.76251 37.22357 34974 ft 453 kts 117°
2026-05-01 09:35 38.72552 37.33485 34982 ft 453 kts 117°
2026-05-01 09:36 38.70096 37.40846 34983 ft 452 kts 117°
2026-05-01 09:36 38.67623 37.48239 34977 ft 452 kts 117°
2026-05-01 09:37 38.65145 37.55629 34976 ft 452 kts 117°
2026-05-01 09:37 38.61418 37.66697 34974 ft 452 kts 117°
2026-05-01 09:38 38.57699 37.77708 34973 ft 452 kts 117°
2026-05-01 09:39 38.53951 37.88759 34977 ft 452 kts 117°
2026-05-01 09:39 38.51449 37.96116 34975 ft 451 kts 117°
2026-05-01 09:40 38.47706 38.07087 34972 ft 451 kts 117°
2026-05-01 09:41 38.45296 38.14498 34961 ft 453 kts 113°
2026-05-01 09:41 38.42218 38.25919 34973 ft 454 kts 112°
2026-05-01 09:42 38.40182 38.33493 34973 ft 455 kts 112°
2026-05-01 09:43 38.35993 38.48699 34986 ft 455 kts 112°
2026-05-01 09:43 38.33884 38.56306 34981 ft 455 kts 112°
2026-05-01 09:44 38.30729 38.67649 35004 ft 455 kts 112°
2026-05-01 09:45 38.28614 38.75233 35003 ft 455 kts 112°
2026-05-01 09:45 38.25432 38.86595 35009 ft 454 kts 113°
2026-05-01 09:46 38.23327 38.94096 35014 ft 453 kts 113°
2026-05-01 09:46 38.21211 39.01637 35010 ft 453 kts 113°
2026-05-01 09:47 38.19445 39.07895 35013 ft 452 kts 113°